Location: Kapla
(46.2483°N, 15.0094°E)
Time: 14:21:21
(UTC+00:00)

BREEZE-M DEB (TANK) - Pass Details

Date: 03 March 2021
Orbit: 308 x 15402 km, 49.5° (Epoch: 19 April)

Event Time Altitude Azimuth Distance (km) Brightness Sun altitude
Rises 19:33:26 0° 289° (WNW) 2,266 6.7 -28.7°
Reaches altitude 10° 19:34:46 10° 292° (WNW) 1,621 5.7 -28.9°
Enters shadow 19:36:45 46° 305° (NW) 859 3.6 -29.2°
